Torna al catalogo

FENGYUN 1C DEB

AttivoSSO
NORAD 31311·DEBRIS·🇨🇳 China

Lanciato May 10, 1999 da Taiyuan Satellite Launch Center

Loading…

Prossimi Passaggi (prossime 24 ore)

TLE

AggiornatoSource: Space-Track

Epoca: Sep 14, 2026, 05:11 UTC

1 31311U 99025BPP 26257.21629646  .00002229  00000-0  85066-3 0  9995
2 31311  98.8447 348.4030 0016848 359.8222  29.5210 14.31756981  1589

Traccia FENGYUN 1C DEB in tempo reale con AllMySat

Download on the App Store